Regional Weather Roundup
Issued by NWS

Home | Current Version | Previous Version | Text Only | Print | Product List | Glossary On
Versions: 1 2 3 4 5 6 7 8 9 10 11 12 13 14 15 16 17 18 19 20 21 22 23 24 25 26 27
000
ASUS46 KPQR 190410
RWROR

OREGON REGIONAL WEATHER ROUNDUP
NATIONAL WEATHER SERVICE PORTLAND OR
900 PM PDT FRI APR 18 2014

NOTE: "FAIR" INDICATES FEW OR NO CLOUDS BELOW 12,000 FEET WITH
NO SIGNIFICANT WEATHER AND/OR OBSTRUCTIONS TO VISIBILITY.

ORZ001>013-190500-
NORTHWEST OREGON


CITY           SKY/WX    TMP DP  RH WIND       PRES   REMARKS
ASTORIA        MOCLDY    52  40  63 SE6       29.90F
NEWPORT        CLOUDY    52  37  58 E9        29.94F
PORTLAND       MOCLDY    54  39  57 W7        29.94F
VANCOUVER WA   MOCLDY    54  36  50 NW3       29.94F
SCAPPOOSE      PTCLDY    48  40  73 W7        29.93
HILLSBORO      PTCLDY    48  42  80 CALM      29.93F
AURORA         PTCLDY    51  38  60 N3        29.94F
MCMINNVILLE      N/A     52  39  61 NW3       29.94F
SALEM          PTCLDY    51  36  56 N7        29.92F
CORVALLIS      PTCLDY    46  41  81 W5        29.94S
EUGENE         PTCLDY    48  41  76 NW3       29.93F
$$

ORZ021-028-190500-
SOUTHWEST OREGON


CITY           SKY/WX    TMP DP  RH WIND       PRES   REMARKS
NORTH BEND     MOCLDY    52  48  87 CALM      29.93S
BROOKINGS      CLOUDY    48  41  77 CALM      29.96R
ROSEBURG       MOCLDY    57  45  64 CALM      29.91S
SEXTON SUMMIT  MOCLDY    51  31  46 S5        29.94F
MEDFORD        CLEAR     60  44  55 S6        29.89S
$$

ORZ009-041-190500-
COLUMBIA GORGE


CITY           SKY/WX    TMP DP  RH WIND       PRES   REMARKS
TROUTDALE      MOCLDY    51  39  63 CALM      29.93F
THE DALLES     PTCLDY    51  37  58 CALM      29.95F
$$

ORZ029>031-042>050-061>064-190500-
EASTERN OREGON


CITY           SKY/WX    TMP DP  RH WIND       PRES   REMARKS
REDMOND        PTCLDY    49  21  33 W5        29.94R
BEND           PTCLDY    45  23  42 CALM      29.95R
KLAMATH FALLS  MOCLDY    49  29  46 N6        29.95R
LAKEVIEW       MOCLDY    46  21  36 N3        29.97R
HERMISTON      PTCLDY    42  33  70 SE6       29.97S
PENDLETON      PTCLDY    45  31  58 NE5       29.97S
JOHN DAY       PTCLDY    45  28  53 E7        29.97S
MEACHAM        CLEAR     35  30  82 CALM      29.99R
LA GRANDE      PTCLDY    43  25  49 SW8       29.98S
BAKER CITY     PTCLDY    39  27  62 SW8       30.00R WCI  33
BURNS          MOCLDY    42  23  46 NE7       29.96R
ROME             N/A     48   8  19 NE7       29.95R
ONTARIO        PTCLDY    49  29  46 CALM      29.98R
$$



USA.gov is the U.S. government's official web portal to all federal, state and local government web resources and services.